ONEWEB-0118 (47264 NORAD) Tracking and Keplerian Element Data

This shows tracking and keplerian element data for the satellite.

Feedback or suggestion? Click here.




ElementValue
Catalog47264
NameONEWEB-0118
Epoch Orbit1655
Epoch Day102.25003472
Epoch Year2021
RAAN6.8158
Inclination87.9353
Eccentricity0.0002059
Argument of Perigee95.3068
Mean Anonmoly211.3151
Mean Motion13.24130928
Decay Rate1.3E-07
L11 47264U 20100G 21102.25003472 .00000013 00000-0 00000+0 0 9998
L22 47264 87.9353 6.8158 0002059 95.3068 211.3151 13.24130928 16559

Live tracking and technical data element details for ONEWEB-0118 (NORAD 47264). ONEWEB-0118 can be tracked NOW for your location showing map with azimuth and elevation plus other details from your city location.

Track the satellite on the map from your city or location and see movement details for azimuth, elevation, latitude, longitude, range, height, and movement on the map or in text.







IsCatalogInMostPopularTable: catalog: 47264, numindb: 33
Update: records affected: 1



GetName: 47264 ONEWEB-0118

Hit Count: updated at: Tue, 13 Apr 2021 03:38:24 GMT